Location: Unspecified
(50.1109°N, 0.0000°E)
Time: 09:59:04
(UTC+00:00)

IRS-1B Rocket - Visible Passes

Search period start: 04 April 2026 00:00
Search period end: 14 April 2026 00:00
Orbit: 868 x 904 km, 99.5° (Epoch: 29 March)

Date Brightness Start Highest point End Pass type
(mag) Time Alt. Az. Time Alt. Az. Time Alt. Az.
4 Apr 7.9 04:24:26 10° ENE 04:26:52 13° NE 04:29:18 10° NNE visible
4 Apr 4.8 20:05:01 10° NNE 20:10:51 90° WNW 20:16:37 10° SSW visible
4 Apr 7.3 21:47:24 10° N 21:51:28 20° NW 21:55:31 10° W visible
5 Apr 7.9 04:23:04 10° ENE 04:25:22 13° NE 04:27:40 10° NNE visible
5 Apr 4.8 20:03:29 10° NNE 20:09:19 88° ESE 20:15:04 10° SSW visible
5 Apr 7.3 21:45:50 10° N 21:49:58 21° NW 21:54:04 10° W visible
6 Apr 7.9 04:21:41 10° ENE 04:23:52 12° NE 04:26:03 10° NNE visible
6 Apr 4.8 20:01:58 10° NNE 20:07:47 86° ESE 20:13:32 10° SSW visible
6 Apr 7.3 21:44:16 10° N 21:48:27 21° NW 21:52:37 10° W visible
7 Apr 8.0 04:20:19 10° ENE 04:22:22 12° NE 04:24:24 10° NNE visible
7 Apr 4.8 20:00:25 10° NNE 20:06:15 84° ESE 20:12:00 10° SSW visible
7 Apr 7.2 21:42:42 10° N 21:46:56 22° NW 21:51:10 10° W visible
8 Apr 8.0 04:18:59 10° ENE 04:20:52 12° NE 04:22:45 10° NNE visible
8 Apr 4.8 19:58:53 10° NNE 20:04:43 82° ESE 20:10:27 10° SSW visible
8 Apr 7.2 21:41:07 10° N 21:45:26 22° NW 21:49:42 10° WSW visible
9 Apr 8.1 04:17:38 10° ENE 04:19:21 11° NE 04:21:05 10° NNE visible
9 Apr 4.8 19:57:22 10° NNE 20:03:10 79° ESE 20:08:55 10° SSW visible
9 Apr 7.2 21:39:34 10° N 21:43:55 23° NW 21:48:15 10° WSW visible
10 Apr 8.1 04:16:19 10° ENE 04:17:52 11° NE 04:19:25 10° NNE visible
10 Apr 4.8 19:55:49 10° NNE 20:01:38 77° ESE 20:07:22 10° SSW visible
10 Apr 7.1 21:38:00 10° N 21:42:25 23° NW 21:46:47 10° WSW visible
11 Apr 8.2 04:15:01 10° ENE 04:16:22 11° NE 04:17:43 10° NNE visible
11 Apr 4.8 19:54:18 10° NNE 20:00:06 75° ESE 20:05:49 10° S visible
11 Apr 7.1 21:36:26 10° N 21:40:53 24° NW 21:45:19 10° WSW visible
12 Apr 8.2 04:13:47 10° NE 04:14:52 11° NE 04:15:57 10° NNE visible
12 Apr 4.8 19:52:46 10° NNE 19:58:34 73° ESE 20:04:16 10° S visible
12 Apr 7.1 21:34:53 10° N 21:39:23 24° NW 21:43:52 10° WSW visible
13 Apr 8.2 04:12:36 10° NE 04:13:22 10° NE 04:14:08 10° NE visible
13 Apr 4.8 19:51:15 10° NNE 19:57:02 71° ESE 20:02:44 10° S visible
13 Apr 7.0 21:33:18 10° N 21:37:52 25° NW 21:42:24 10° WSW visible
